Weather History for KCKB - October, 2011

Change the Weather History Date:

Monday, October 24, 2011

  Actual Average Record
Temperature  
Mean Temperature 54 °F -  
Max Temperature 63 °F 63 °F 83 °F (1947)
Min Temperature 46 °F 36 °F 21 °F (1964)
Degree Days  
Heating Degree Days 11    
Growing Degree Days 4 (Base 50)    
Moisture  
Dew Point 45 °F    
Average Humidity 79    
Maximum Humidity 100    
Minimum Humidity 50    
Precipitation  
Precipitation 0.04 in - - ()
Sea Level Pressure  
Sea Level Pressure 30.08 in    
Wind  
Wind Speed 2 mph (SW)    
Max Wind Speed 12 mph    
Max Gust Speed -    
Visibility 7 miles    
Events Fog , Rain    
Averages and records for this station are not official NWS values.
T = Trace of Precipitation, MM = Missing Value Source: NWS Daily Summary

Daily Weather History Graph

Daily Weather History Graph

Search for Another Location

Airport or City:

Trip Planner

Search our weather history database for the weather conditions in past years. The results will help you decide how hot, cold, wet, or windy it might be!

Date:

Astronomy

Oct. 24, 2011 Rise Set
Actual Time 7:39 AM EDT 6:29 PM EDT
Civil Twilight 7:12 AM EDT 6:57 PM EDT
Nautical Twilight 6:41 AM EDT 7:28 PM EDT
Astronomical Twilight 6:09 AM EDT 7:59 PM EDT
Moon 4:57 AM EDT (10/24) 4:53 PM EDT (10/24)
Length of Visible Light 11h 44m
Length of Day
10h 50m
Waning Crescent, 7% of the Moon is Illuminated
Oct 24
Waning Crescent
Oct 26
New
Nov 2
First Quarter
Nov 10
Full
Nov 18
Last Quarter

Hourly Weather History & Observations

Time (EDT) Temp. Windchill Dew Point Humidity Pressure Visibility Wind Dir Wind Speed Gust Speed Precip Events Conditions
12:07 AM 48.2 °F - 39.2 °F 71% 30.09 in 1.8 mi Calm Calm - N/A   Haze
12:25 AM 46.4 °F - 42.8 °F 87% 30.09 in 3.0 mi Calm Calm - N/A   Haze
12:53 AM 48.0 °F - 41.0 °F 77% 30.07 in 9.0 mi Calm Calm - N/A   Overcast
1:53 AM 50.0 °F - 39.9 °F 68% 30.07 in 10.0 mi Calm Calm - N/A   Overcast
2:53 AM 48.0 °F - 42.1 °F 80% 30.06 in 10.0 mi Calm Calm - N/A   Partly Cloudy
3:53 AM 46.9 °F - 39.0 °F 74% 30.05 in 10.0 mi Calm Calm - N/A   Clear
4:53 AM 46.9 °F - 41.0 °F 80% 30.04 in 10.0 mi Calm Calm - N/A   Overcast
5:53 AM 48.0 °F - 41.0 °F 77% 30.05 in 10.0 mi Calm Calm - N/A   Overcast
6:53 AM 50.0 °F - 37.9 °F 63% 30.05 in 10.0 mi South 3.5 mph - N/A   Mostly Cloudy
7:53 AM 50.0 °F - 39.0 °F 66% 30.06 in 10.0 mi Calm Calm - N/A   Overcast
8:53 AM 51.1 °F - 42.1 °F 71% 30.06 in 10.0 mi Calm Calm - 0.00 in   Overcast
9:53 AM 55.9 °F - 43.0 °F 62% 30.06 in 10.0 mi SSW 5.8 mph - N/A   Partly Cloudy
10:53 AM 62.1 °F - 43.0 °F 50% 30.04 in 10.0 mi SSW 11.5 mph - N/A   Partly Cloudy
11:53 AM 59.0 °F - 42.1 °F 53% 30.07 in 10.0 mi West 9.2 mph - 0.00 in   Mostly Cloudy
12:53 PM 59.0 °F - 43.0 °F 55% 30.05 in 10.0 mi WSW 6.9 mph - 0.00 in   Scattered Clouds
1:53 PM 60.1 °F - 44.1 °F 55% 30.01 in 10.0 mi WSW 9.2 mph - 0.00 in   Scattered Clouds
2:53 PM 55.4 °F - 48.2 °F 77% 30.04 in 4.0 mi NNW 8.1 mph - N/A Rain Rain
3:10 PM 53.6 °F - 51.8 °F 94% 30.02 in 3.0 mi Calm Calm - 0.03 in Rain Light Rain
3:17 PM 55.4 °F - 50.0 °F 82% 30.02 in 7.0 mi Calm Calm - 0.03 in Rain Light Rain
3:53 PM 55.9 °F - 50.0 °F 80% 30.01 in 10.0 mi Calm Calm - 0.03 in   Mostly Cloudy
4:53 PM 55.0 °F - 50.0 °F 83% 30.03 in 10.0 mi Calm Calm - 0.01 in   Overcast
5:53 PM 55.0 °F - 51.1 °F 86% 30.06 in 10.0 mi Calm Calm - 0.00 in   Mostly Cloudy
6:53 PM 54.0 °F - 50.0 °F 86% 30.08 in 10.0 mi WNW 3.5 mph - 0.00 in   Mostly Cloudy
7:53 PM 52.0 °F - 48.9 °F 89% 30.11 in 10.0 mi West 6.9 mph - N/A   Clear
8:53 PM 50.0 °F - 48.0 °F 93% 30.13 in 8.0 mi Calm Calm - N/A   Clear
9:53 PM 48.2 °F - 46.4 °F 93% 30.15 in 5.0 mi Calm Calm - N/A   Clear
10:53 PM 46.9 °F - 46.0 °F 97% 30.16 in 1.8 mi Calm Calm - N/A   Clear
11:02 PM 46.4 °F - 44.6 °F 93% 30.17 in 0.5 mi Calm Calm - 0.01 in Fog Fog
11:18 PM 46.4 °F 45.2 °F 46.4 °F 100% 30.17 in 1.5 mi South 3.5 mph - 0.01 in   Clear
11:38 PM 46.4 °F 45.2 °F 46.4 °F 100% 30.17 in 3.0 mi South 3.5 mph - 0.01 in   Partly Cloudy
11:53 PM 46.4 °F 45.2 °F 46.4 °F 100% 30.17 in 2.5 mi South 3.5 mph - N/A   Partly Cloudy